Torna al catalogo

WESTFORD NEEDLES

LostPO
NORAD 2377·DEBRIS·🇺🇸 United States

Lanciato May 9, 1963 da Vandenberg Space Force Base

Loading…

Prossimi Passaggi (prossime 24 ore)

TLE

ObsoletoSource: Space-Track

Epoca: May 22, 2026, 04:08 UTC

1 02377U 63014X   26142.17251139 -.00000717  00000-0 -28915+0 0  9998
2 02377  87.4053 166.5370 0483010 301.2951  54.1467  8.68672115923749

Traccia WESTFORD NEEDLES in tempo reale con AllMySat

Download on the App Store